Regional Weather Roundup
Issued by NWS Cleveland, OH

Home | Current Version | Previous Version | Graphics & Text | Print | Product List | Glossary On
Versions: 1 2 3 4 5 6 7 8 9 10 11 12 13 14 15 16 17 18 19 20 21 22 23 24 25 26 27 28 29 30 31 32 33 34 35 36 37 38 39 40 41 42 43 44 45 46 47 48 49 50
479
ASUS41 KCLE 241412
RWRCLE
OHIO REGIONAL WEATHER ROUNDUP
NATIONAL WEATHER SERVICE WILMINGTON, OH
1000 AM EDT WED MAY 24 2017

NOTE: "FAIR" INDICATES FEW OR NO CLOUDS BELOW 12,000 FEET WITH NO
SIGNIFICANT WEATHER AND/OR OBSTRUCTIONS TO VISIBILITY.

OHZ001>008-015>018-024>027-034-035-043-044-241500-
   NORTHWEST OHIO

CITY           SKY/WX    TMP DP  RH WIND       PRES   REMARKS
DEFIANCE       CLOUDY    63  56  78 CALM      29.57S
FINDLAY        FAIR      67  59  75 SE8       29.55F
TOLEDO EXPRESS FAIR      64  59  83 E7        29.57S
TOLEDO EXEC    PTSUNNY   66  61  84 E6        29.58F
LIMA           FAIR      65  60  84 SE8       29.55F
$$

OHZ009>014-019>023-028>033-038-089-241500-
   NORTHEAST OHIO

CITY           SKY/WX    TMP DP  RH WIND       PRES   REMARKS
CLE-HOPKINS    CLOUDY    65  58  78 E8        29.63S
CLE-LAKEFRONT  CLOUDY    63  56  78 SE9       29.60S
CUY CO. ARPT   PTSUNNY   63  59  88 SE12      29.63S
LORAIN-ELYRIA    N/A    N/A N/A N/A MISG      29.61S
ASHTABULA      CLOUDY    60  55  83 SE12      29.65F
AKRON-CANTON   CLOUDY    62  54  74 SE12      29.61F
WOOSTER        PTSUNNY   62  55  77 SE14      29.61F
MANSFIELD      CLOUDY    63  56  78 E9        29.59F
YOUNGSTOWN     CLOUDY    60  56  86 E9        29.64F
$$

OHZ042-051>053-060>062-070>072-077>081-241500-
  SOUTHWEST OHIO

CITY           SKY/WX    TMP DP  RH WIND       PRES   REMARKS
CINC-COVINGTON CLOUDY    63  60  90 SE12      29.52S
CINC-LUNKEN    PTSUNNY   66  61  84 SE9       29.52S
HAMILTON       PTSUNNY   66  61  84 E6        29.53F
DAYTON         PTSUNNY   66  58  75 E12       29.54F
WRIGHT-PAT AFB PTSUNNY   66  61  82 E7        29.54F
DAYTON GENERAL CLOUDY    65  59  81 E9        29.53F
WILMINGTON     CLOUDY    64  60  87 E7        29.55S
$$

OHZ036-037-039>041-045>050-054>059-063>069-073>076-082>088-241500-
  CENTRAL AND SOUTHEAST OHIO

CITY           SKY/WX    TMP DP  RH WIND       PRES   REMARKS
COLUMBUS       CLOUDY    64  59  83 E7        29.56F
OSU AIRPORT    CLOUDY    64  59  83 E6        29.56F
BOLTON FIELD   CLOUDY    64  59  82 E7        29.57F
RICKENBACK AFB CLOUDY    63  60  89 SE5       29.56S
NEWARK         CLOUDY    63  56  78 E9        29.57F
MARION         PTSUNNY   66  58  75 SE10      29.58F
LANCASTER      CLOUDY    64  58  80 E10       29.57F
ZANESVILLE     LGT RAIN  61  58  90 SE8       29.59S
NEW PHILLY     CLOUDY    63  56  78 SE12G20   29.61F
$$




USA.gov is the U.S. government's official web portal to all federal, state and local government web resources and services.